BCS4261 EDDP-LIMC

Flight info

Callsign BCS4261
Flight time 1h 26m
Altitude 38000
Route NEVKO2S NEVKO Q243 BAMKI Z94 KOMIB DCT TEDGO DCT SONOM/N0444F390 DCT GERSA DCT SOSON DCT DEGAD Z424 RIXUV
Aircraft B738/M-SDE2E3FGHIRWXY/LB1

Departure

Time 2026-05-05 11:30
Airport Leipzig/Halle Airport (EDDP)

Arrival

Time 2026-05-05 12:57
Airport Milan Malpensa International Airport (LIMC)
Time Latitude Longitude Altitude Speed Heading
2026-05-05 10:45 51.40894 12.23875 466 ft 0 kts 85°
2026-05-05 10:51 51.40895 12.23874 466 ft 2 kts 85°
2026-05-05 10:51 51.40894 12.23875 466 ft 0 kts 85°
2026-05-05 11:19 51.40893 12.23848 465 ft 4 kts 85°
2026-05-05 11:19 51.40891 12.23810 465 ft 2 kts 86°
2026-05-05 11:20 51.40887 12.23775 463 ft 4 kts 45°
2026-05-05 11:20 51.40868 12.23765 461 ft 4 kts 355°
2026-05-05 11:20 51.40852 12.23766 465 ft 0 kts 355°
2026-05-05 11:23 51.40876 12.23763 465 ft 5 kts 355°
2026-05-05 11:24 51.40908 12.23759 464 ft 5 kts 355°
2026-05-05 11:24 51.40940 12.23755 467 ft 5 kts 355°
2026-05-05 11:24 51.40971 12.23751 468 ft 4 kts 355°
2026-05-05 11:24 51.41012 12.23747 466 ft 10 kts
2026-05-05 11:25 51.41060 12.23833 466 ft 12 kts 83°
2026-05-05 11:25 51.41068 12.23972 470 ft 15 kts 85°
2026-05-05 11:25 51.41076 12.24139 470 ft 15 kts 86°
2026-05-05 11:25 51.41083 12.24299 470 ft 14 kts 86°
2026-05-05 11:26 51.41090 12.24453 470 ft 14 kts 85°
2026-05-05 11:26 51.41097 12.24599 470 ft 13 kts 85°
2026-05-05 11:26 51.41104 12.24741 471 ft 13 kts 85°
2026-05-05 11:26 51.41111 12.24880 471 ft 12 kts 88°
2026-05-05 11:27 51.41115 12.25015 471 ft 12 kts 86°
2026-05-05 11:27 51.41123 12.25147 471 ft 12 kts 84°
2026-05-05 11:27 51.41128 12.25275 471 ft 11 kts 86°
2026-05-05 11:27 51.41134 12.25385 470 ft 2 kts 79°
2026-05-05 11:28 51.41146 12.25428 470 ft 7 kts 57°
2026-05-05 11:28 51.41190 12.25458 474 ft 7 kts 354°
2026-05-05 11:28 51.41239 12.25443 468 ft 7 kts 347°
2026-05-05 11:28 51.41292 12.25411 475 ft 8 kts 330°
2026-05-05 11:29 51.41349 12.25326 476 ft 12 kts 306°
2026-05-05 11:29 51.41379 12.25204 471 ft 12 kts 277°
2026-05-05 11:29 51.41375 12.25040 470 ft 28 kts 266°
2026-05-05 11:29 51.41341 12.24335 475 ft 98 kts 265°
2026-05-05 11:30 51.41284 12.22925 473 ft 153 kts 268°
2026-05-05 11:30 51.41198 12.21112 910 ft 162 kts 268°
2026-05-05 11:30 51.41101 12.19319 1622 ft 169 kts 265°
2026-05-05 11:30 51.41005 12.17409 2220 ft 178 kts 268°
2026-05-05 11:31 51.40915 12.15295 2597 ft 205 kts 267°
2026-05-05 11:31 51.40805 12.12881 2826 ft 229 kts 266°
2026-05-05 11:31 51.40681 12.10289 3164 ft 242 kts 266°
2026-05-05 11:31 51.40547 12.07587 3733 ft 244 kts 266°
2026-05-05 11:32 51.40408 12.04871 4331 ft 245 kts 265°
2026-05-05 11:32 51.40265 12.02154 4972 ft 245 kts 265°
2026-05-05 11:32 51.40119 11.99387 5385 ft 258 kts 265°
2026-05-05 11:32 51.39959 11.96463 5923 ft 267 kts 262°
2026-05-05 11:33 51.39356 11.93666 6759 ft 267 kts 237°
2026-05-05 11:33 51.38080 11.91524 7589 ft 269 kts 215°
2026-05-05 11:33 51.36473 11.89963 8402 ft 271 kts 210°
2026-05-05 11:33 51.34825 11.88473 9222 ft 273 kts 210°
2026-05-05 11:34 51.33162 11.86974 10018 ft 275 kts 210°
2026-05-05 11:34 51.31449 11.85414 10365 ft 295 kts 210°
2026-05-05 11:34 51.29601 11.83715 10549 ft 318 kts 211°
2026-05-05 11:34 51.27634 11.81903 10913 ft 332 kts 211°
2026-05-05 11:35 51.25615 11.80038 11554 ft 337 kts 211°
2026-05-05 11:35 51.23669 11.77946 12300 ft 339 kts 217°
2026-05-05 11:35 51.21800 11.75617 13076 ft 342 kts 219°
2026-05-05 11:35 51.19953 11.73229 13977 ft 341 kts 219°
2026-05-05 11:36 51.18705 11.71615 14499 ft 343 kts 219°
2026-05-05 11:36 51.16837 11.69215 15206 ft 347 kts 219°
2026-05-05 11:36 51.14967 11.66839 15914 ft 350 kts 219°
2026-05-05 11:36 51.13052 11.64426 16630 ft 353 kts 219°
2026-05-05 11:37 51.11111 11.61994 17323 ft 357 kts 219°
2026-05-05 11:37 51.09148 11.59546 18018 ft 360 kts 219°
2026-05-05 11:37 51.07167 11.57082 18629 ft 364 kts 219°
2026-05-05 11:37 51.05162 11.54592 19199 ft 368 kts 219°
2026-05-05 11:38 51.03135 11.52080 19763 ft 371 kts 219°
2026-05-05 11:38 51.01088 11.49545 20336 ft 375 kts 218°
2026-05-05 11:38 50.99021 11.46989 20864 ft 379 kts 218°
2026-05-05 11:38 50.96932 11.44407 21398 ft 383 kts 218°
2026-05-05 11:39 50.94822 11.41803 21935 ft 386 kts 218°
2026-05-05 11:39 50.92693 11.39178 22485 ft 390 kts 218°
2026-05-05 11:39 50.90543 11.36530 22994 ft 393 kts 218°
2026-05-05 11:39 50.88343 11.33825 23493 ft 397 kts 218°
2026-05-05 11:40 50.86188 11.31156 23898 ft 400 kts 220°
2026-05-05 11:40 50.84274 11.27961 24384 ft 401 kts 232°
2026-05-05 11:40 50.82606 11.24436 24913 ft 401 kts 233°
2026-05-05 11:40 50.80946 11.20877 25370 ft 403 kts 233°
2026-05-05 11:41 50.79271 11.17333 25783 ft 405 kts 232°
2026-05-05 11:41 50.77562 11.13780 26192 ft 407 kts 232°
2026-05-05 11:41 50.75833 11.10229 26613 ft 409 kts 232°
2026-05-05 11:41 50.74092 11.06675 27037 ft 410 kts 232°
2026-05-05 11:42 50.72284 11.03184 27425 ft 412 kts 226°
2026-05-05 11:42 50.70180 11.00098 27810 ft 414 kts 218°
2026-05-05 11:42 50.67820 10.97484 28214 ft 415 kts 215°
2026-05-05 11:42 50.65428 10.94918 28595 ft 417 kts 215°
2026-05-05 11:43 50.63023 10.92326 28928 ft 420 kts 215°
2026-05-05 11:43 50.60618 10.89712 29286 ft 421 kts 215°
2026-05-05 11:43 50.58208 10.87076 29653 ft 423 kts 215°
2026-05-05 11:43 50.55795 10.84433 30068 ft 422 kts 215°
2026-05-05 11:44 50.53393 10.81806 30523 ft 419 kts 216°
2026-05-05 11:44 50.51008 10.79212 31024 ft 415 kts 215°
2026-05-05 11:44 50.48638 10.76649 31458 ft 413 kts 215°
2026-05-05 11:44 50.46275 10.74097 31838 ft 412 kts 216°
2026-05-05 11:45 50.43917 10.71553 32228 ft 411 kts 216°
2026-05-05 11:45 50.41569 10.69013 32650 ft 409 kts 216°
2026-05-05 11:45 50.39248 10.66489 33199 ft 403 kts 216°
2026-05-05 11:45 50.36954 10.63997 33713 ft 399 kts 216°
2026-05-05 11:46 50.34672 10.61524 34031 ft 399 kts 216°
2026-05-05 11:46 50.32381 10.59052 34230 ft 401 kts 215°
2026-05-05 11:46 50.30073 10.56585 34450 ft 402 kts 215°
2026-05-05 11:46 50.27768 10.54126 34743 ft 401 kts 215°
2026-05-05 11:47 50.25462 10.51667 35019 ft 401 kts 215°
2026-05-05 11:47 50.23168 10.49198 35255 ft 401 kts 217°
2026-05-05 11:47 50.21043 10.46379 35479 ft 401 kts 225°
2026-05-05 11:47 50.19113 10.43237 35740 ft 401 kts 226°
2026-05-05 11:48 50.15241 10.36959 36146 ft 403 kts 225°
2026-05-05 11:48 50.13288 10.33831 36369 ft 403 kts 225°
2026-05-05 11:48 50.11358 10.30753 36618 ft 402 kts 225°
2026-05-05 11:49 50.09398 10.27648 36851 ft 402 kts 223°
2026-05-05 11:49 50.07250 10.24850 37045 ft 403 kts 215°
2026-05-05 11:49 50.04883 10.22543 37263 ft 403 kts 207°
2026-05-05 11:49 50.02334 10.20720 37491 ft 403 kts 205°
2026-05-05 11:50 49.99779 10.18968 37696 ft 403 kts 205°
2026-05-05 11:50 49.97208 10.17214 37814 ft 405 kts 205°
2026-05-05 11:50 49.92032 10.13664 37826 ft 407 kts 205°
2026-05-05 11:51 49.86886 10.10116 37822 ft 403 kts 205°
2026-05-05 11:51 49.81786 10.06593 37828 ft 400 kts 205°
2026-05-05 11:52 49.76713 10.03093 37832 ft 398 kts 205°
2026-05-05 11:52 49.71647 9.99605 37842 ft 401 kts 205°
2026-05-05 11:53 49.66500 9.96070 37843 ft 408 kts 204°
2026-05-05 11:53 49.61294 9.92503 37854 ft 411 kts 204°
2026-05-05 11:54 49.56055 9.88922 37842 ft 413 kts 204°
2026-05-05 11:54 49.50804 9.85342 37830 ft 413 kts 204°
2026-05-05 11:55 49.45537 9.81760 37828 ft 413 kts 204°
2026-05-05 11:55 49.40294 9.78202 37828 ft 411 kts 204°
2026-05-05 11:56 49.35068 9.74663 37831 ft 410 kts 204°
2026-05-05 11:56 49.29859 9.71145 37827 ft 408 kts 204°
2026-05-05 11:57 49.24671 9.67647 37833 ft 407 kts 204°
2026-05-05 11:57 49.19483 9.64159 37824 ft 407 kts 204°
2026-05-05 11:58 49.14339 9.60709 37829 ft 406 kts 204°
2026-05-05 11:58 49.09168 9.57247 37824 ft 405 kts 203°
2026-05-05 11:59 49.04006 9.53801 37836 ft 405 kts 203°
2026-05-05 11:59 48.98837 9.50356 37837 ft 406 kts 203°
2026-05-05 12:00 48.93663 9.46917 37843 ft 406 kts 203°
2026-05-05 12:00 48.88473 9.43474 37837 ft 407 kts 203°
2026-05-05 12:01 48.83270 9.40031 37850 ft 409 kts 203°
2026-05-05 12:01 48.78041 9.36578 37831 ft 411 kts 203°
2026-05-05 12:02 48.72792 9.33119 37838 ft 412 kts 203°
2026-05-05 12:02 48.67519 9.29652 37824 ft 414 kts 203°
2026-05-05 12:03 48.62234 9.26192 37839 ft 415 kts 202°
2026-05-05 12:03 48.56747 9.23491 37837 ft 415 kts 196°
2026-05-05 12:04 48.51179 9.21129 37850 ft 415 kts 196°
2026-05-05 12:04 48.45621 9.18748 37857 ft 415 kts 197°
2026-05-05 12:05 48.40082 9.16334 37863 ft 414 kts 197°
2026-05-05 12:05 48.34545 9.13909 37860 ft 414 kts 197°
2026-05-05 12:06 48.29024 9.11494 37856 ft 413 kts 197°
2026-05-05 12:06 48.23515 9.09089 37861 ft 412 kts 197°
2026-05-05 12:07 48.18018 9.06695 37869 ft 411 kts 197°
2026-05-05 12:07 48.12533 9.04313 37869 ft 410 kts 197°
2026-05-05 12:08 48.07061 9.01941 37866 ft 410 kts 197°
2026-05-05 12:08 48.01581 8.99571 37874 ft 410 kts 197°
2026-05-05 12:09 47.96137 8.97222 37871 ft 410 kts 197°
2026-05-05 12:09 47.90646 8.94857 37872 ft 411 kts 197°
2026-05-05 12:10 47.85154 8.92497 37875 ft 411 kts 197°
2026-05-05 12:10 47.79657 8.90139 37868 ft 411 kts 197°
2026-05-05 12:11 47.74193 8.87634 37878 ft 411 kts 199°
2026-05-05 12:11 47.68778 8.84907 37881 ft 410 kts 200°
2026-05-05 12:12 47.63381 8.82196 37882 ft 411 kts 199°
2026-05-05 12:12 47.57959 8.79510 37881 ft 411 kts 199°
2026-05-05 12:13 47.52535 8.76843 37883 ft 411 kts 199°
2026-05-05 12:13 47.47113 8.74185 37882 ft 410 kts 199°
2026-05-05 12:14 47.41700 8.71538 37889 ft 410 kts 199°
2026-05-05 12:14 47.36283 8.68894 37886 ft 410 kts 199°
2026-05-05 12:15 47.30870 8.66257 37885 ft 410 kts 199°
2026-05-05 12:15 47.28143 8.64930 37456 ft 415 kts 199°
2026-05-05 12:15 47.25408 8.63601 36949 ft 413 kts 199°
2026-05-05 12:16 47.22692 8.62284 36566 ft 408 kts 199°
2026-05-05 12:16 47.20011 8.60984 36137 ft 404 kts 199°
2026-05-05 12:16 47.17360 8.59700 35751 ft 399 kts 199°
2026-05-05 12:16 47.14735 8.58430 35345 ft 395 kts 199°
2026-05-05 12:17 47.12134 8.57172 34943 ft 392 kts 199°
2026-05-05 12:17 47.09553 8.55926 34549 ft 388 kts 199°
2026-05-05 12:17 47.06998 8.54697 34169 ft 385 kts 198°
2026-05-05 12:17 47.04388 8.53841 33757 ft 384 kts 190°
2026-05-05 12:18 47.01742 8.53544 33449 ft 379 kts 182°
2026-05-05 12:18 46.99119 8.53793 33084 ft 377 kts 177°
2026-05-05 12:18 46.96526 8.54184 32709 ft 373 kts 176°
2026-05-05 12:18 46.93960 8.54583 32360 ft 369 kts 176°
2026-05-05 12:19 46.91420 8.54973 31989 ft 366 kts 176°
2026-05-05 12:19 46.88897 8.55352 31622 ft 361 kts 176°
2026-05-05 12:19 46.86419 8.55717 31259 ft 358 kts 176°
2026-05-05 12:19 46.83950 8.56075 30903 ft 355 kts 177°
2026-05-05 12:20 46.81499 8.56427 30554 ft 353 kts 176°
2026-05-05 12:20 46.79059 8.56777 30181 ft 351 kts 176°
2026-05-05 12:20 46.76644 8.57128 29822 ft 346 kts 176°
2026-05-05 12:20 46.74256 8.57470 29372 ft 343 kts 176°
2026-05-05 12:21 46.71912 8.57804 29128 ft 337 kts 176°
2026-05-05 12:21 46.69584 8.58133 28731 ft 334 kts 176°
2026-05-05 12:21 46.67279 8.58462 28343 ft 332 kts 176°
2026-05-05 12:21 46.64991 8.58789 28020 ft 329 kts 177°
2026-05-05 12:22 46.62709 8.59114 27649 ft 331 kts 178°
2026-05-05 12:22 46.61175 8.59331 27430 ft 338 kts 178°
2026-05-05 12:22 46.58795 8.59664 27012 ft 348 kts 178°
2026-05-05 12:22 46.56383 8.60004 26596 ft 347 kts 178°
2026-05-05 12:23 46.53209 8.60453 26104 ft 345 kts 178°
2026-05-05 12:23 46.51601 8.60679 25847 ft 343 kts 178°
2026-05-05 12:23 46.49232 8.61012 25488 ft 342 kts 178°
2026-05-05 12:23 46.46870 8.61340 25111 ft 339 kts 178°
2026-05-05 12:24 46.44549 8.61224 24773 ft 332 kts 192°
2026-05-05 12:24 46.42325 8.60380 24428 ft 329 kts 201°
2026-05-05 12:24 46.40282 8.58924 24054 ft 327 kts 212°
2026-05-05 12:24 46.38358 8.57183 23723 ft 325 kts 212°
2026-05-05 12:25 46.36450 8.55427 23315 ft 324 kts 212°
2026-05-05 12:25 46.34555 8.53704 22985 ft 318 kts 212°
2026-05-05 12:25 46.32683 8.52018 22589 ft 317 kts 212°
2026-05-05 12:25 46.30815 8.50344 22217 ft 314 kts 212°
2026-05-05 12:26 46.28939 8.48761 21900 ft 311 kts 205°
2026-05-05 12:26 46.26876 8.47841 21558 ft 310 kts 193°
2026-05-05 12:26 46.24731 8.47542 21187 ft 311 kts 180°
2026-05-05 12:26 46.22579 8.47814 20856 ft 310 kts 177°
2026-05-05 12:27 46.20441 8.48164 20513 ft 309 kts 177°
2026-05-05 12:27 46.18291 8.48509 19986 ft 311 kts 177°
2026-05-05 12:27 46.16174 8.48837 19775 ft 306 kts 178°
2026-05-05 12:27 46.14069 8.49150 19522 ft 303 kts 178°
2026-05-05 12:28 46.11975 8.49463 19177 ft 302 kts 177°
2026-05-05 12:28 46.09916 8.50115 18840 ft 305 kts 166°
2026-05-05 12:28 46.07928 8.51162 18514 ft 305 kts 163°
2026-05-05 12:28 46.05952 8.52254 18166 ft 304 kts 163°
2026-05-05 12:29 46.03977 8.53346 17810 ft 304 kts 163°
2026-05-05 12:29 46.02006 8.54425 17435 ft 301 kts 163°
2026-05-05 12:29 46.00066 8.55481 17178 ft 297 kts 164°
2026-05-05 12:29 45.98130 8.56521 16813 ft 296 kts 164°
2026-05-05 12:30 45.96205 8.57561 16524 ft 295 kts 164°
2026-05-05 12:30 45.94289 8.58593 16189 ft 294 kts 164°
2026-05-05 12:30 45.92399 8.59606 15872 ft 293 kts 164°
2026-05-05 12:30 45.90501 8.60627 15556 ft 291 kts 163°
2026-05-05 12:31 45.88735 8.62076 15254 ft 297 kts 147°
2026-05-05 12:31 45.87139 8.63950 14961 ft 296 kts 146°
2026-05-05 12:31 45.85553 8.65830 14650 ft 295 kts 146°
2026-05-05 12:31 45.83966 8.67700 14338 ft 295 kts 146°
2026-05-05 12:32 45.82373 8.69555 13997 ft 295 kts 146°
2026-05-05 12:32 45.80782 8.71397 13698 ft 294 kts 146°
2026-05-05 12:32 45.79190 8.73231 13351 ft 293 kts 146°
2026-05-05 12:32 45.77603 8.75056 13027 ft 292 kts 146°
2026-05-05 12:33 45.76006 8.76831 12710 ft 288 kts 151°
2026-05-05 12:33 45.74282 8.78257 12405 ft 284 kts 156°
2026-05-05 12:33 45.72526 8.79548 12089 ft 283 kts 157°
2026-05-05 12:33 45.70779 8.80827 11782 ft 282 kts 156°
2026-05-05 12:34 45.69043 8.82120 11464 ft 281 kts 156°
2026-05-05 12:34 45.67323 8.83424 11177 ft 279 kts 155°
2026-05-05 12:34 45.65633 8.84716 11046 ft 271 kts 155°
2026-05-05 12:34 45.63990 8.85977 10925 ft 264 kts 155°
2026-05-05 12:35 45.62395 8.87201 10805 ft 256 kts 156°
2026-05-05 12:35 45.60763 8.88088 10568 ft 249 kts 172°
2026-05-05 12:35 45.59069 8.88498 10348 ft 246 kts 173°
2026-05-05 12:35 45.57385 8.88917 10090 ft 245 kts 173°
2026-05-05 12:36 45.55709 8.89354 9836 ft 244 kts 172°
2026-05-05 12:36 45.54042 8.89799 9557 ft 244 kts 172°
2026-05-05 12:36 45.52379 8.90247 9288 ft 242 kts 172°
2026-05-05 12:36 45.50750 8.90688 9040 ft 242 kts 171°
2026-05-05 12:37 45.49072 8.91142 8604 ft 250 kts 171°
2026-05-05 12:37 45.47338 8.91613 8171 ft 257 kts 171°
2026-05-05 12:37 45.45558 8.92097 7727 ft 264 kts 170°
2026-05-05 12:37 45.43735 8.92593 7241 ft 268 kts 169°
2026-05-05 12:38 45.41881 8.93097 6794 ft 268 kts 170°
2026-05-05 12:38 45.40061 8.93591 6328 ft 266 kts 169°
2026-05-05 12:38 45.38270 8.94077 5881 ft 264 kts 171°
2026-05-05 12:38 45.36539 8.94546 5903 ft 245 kts 171°
2026-05-05 12:39 45.34918 8.94987 5886 ft 232 kts 171°
2026-05-05 12:39 45.33342 8.95414 5886 ft 230 kts 171°
2026-05-05 12:39 45.31770 8.95838 5893 ft 231 kts 171°
2026-05-05 12:39 45.30187 8.96266 5895 ft 232 kts 171°
2026-05-05 12:40 45.28600 8.96697 5892 ft 233 kts 171°
2026-05-05 12:40 45.27001 8.97131 5872 ft 234 kts 171°
2026-05-05 12:40 45.25401 8.97565 5873 ft 235 kts 171°
2026-05-05 12:40 45.23791 8.98001 5872 ft 235 kts 171°
2026-05-05 12:41 45.22207 8.98430 5863 ft 227 kts 171°
2026-05-05 12:41 45.20686 8.98840 5845 ft 219 kts 171°
2026-05-05 12:41 45.19205 8.99237 5839 ft 215 kts 171°
2026-05-05 12:41 45.17735 8.99630 5844 ft 216 kts 171°
2026-05-05 12:42 45.16244 9.00028 5855 ft 220 kts 171°
2026-05-05 12:42 45.14725 9.00433 5866 ft 223 kts 171°
2026-05-05 12:42 45.13203 9.00841 5848 ft 221 kts 171°
2026-05-05 12:42 45.11696 9.01246 5844 ft 220 kts 171°
2026-05-05 12:43 45.10199 9.01648 5847 ft 218 kts 171°
2026-05-05 12:43 45.08707 9.02045 5840 ft 218 kts 173°
2026-05-05 12:43 45.07228 9.01882 5811 ft 214 kts 205°
2026-05-05 12:43 45.06090 9.00571 5811 ft 216 kts 234°
2026-05-05 12:44 45.05496 8.98590 5700 ft 225 kts 256°
2026-05-05 12:44 45.05198 8.96399 5534 ft 228 kts 258°
2026-05-05 12:44 45.04909 8.94209 5334 ft 224 kts 258°
2026-05-05 12:44 45.04652 8.92057 5149 ft 221 kts 266°
2026-05-05 12:45 45.05020 8.89965 5000 ft 225 kts 303°
2026-05-05 12:45 45.06177 8.88507 4963 ft 226 kts 334°
2026-05-05 12:45 45.07688 8.87896 4935 ft 227 kts 349°
2026-05-05 12:45 45.09245 8.87490 4872 ft 228 kts 349°
2026-05-05 12:46 45.10811 8.87081 4842 ft 230 kts 349°
2026-05-05 12:46 45.12402 8.86660 4790 ft 235 kts 348°
2026-05-05 12:46 45.14006 8.86236 4705 ft 233 kts 349°
2026-05-05 12:46 45.15572 8.85816 4633 ft 225 kts 349°
2026-05-05 12:47 45.17091 8.85405 4584 ft 221 kts 348°
2026-05-05 12:47 45.18599 8.84996 4547 ft 221 kts 348°
2026-05-05 12:47 45.20096 8.84589 4513 ft 223 kts 348°
2026-05-05 12:47 45.21633 8.84171 4475 ft 227 kts 348°
2026-05-05 12:48 45.23187 8.83748 4418 ft 228 kts 348°
2026-05-05 12:48 45.24750 8.83322 4411 ft 229 kts 349°
2026-05-05 12:48 45.26322 8.82894 4360 ft 231 kts 349°
2026-05-05 12:48 45.27899 8.82464 4314 ft 229 kts 349°
2026-05-05 12:49 45.29418 8.82050 4242 ft 218 kts 349°
2026-05-05 12:49 45.30857 8.81659 4209 ft 204 kts 349°
2026-05-05 12:49 45.32235 8.81284 4190 ft 201 kts 349°
2026-05-05 12:49 45.33594 8.80914 4158 ft 198 kts 349°
2026-05-05 12:50 45.34940 8.80547 4105 ft 196 kts 349°
2026-05-05 12:50 45.36276 8.80183 4061 ft 194 kts 349°
2026-05-05 12:50 45.37574 8.79858 3957 ft 186 kts 352°
2026-05-05 12:50 45.38840 8.79610 3880 ft 182 kts 352°
2026-05-05 12:51 45.40096 8.79369 3793 ft 182 kts 352°
2026-05-05 12:51 45.41350 8.79166 3683 ft 180 kts 354°
2026-05-05 12:51 45.42581 8.78947 3596 ft 177 kts 352°
2026-05-05 12:51 45.43810 8.78655 3480 ft 181 kts 352°
2026-05-05 12:52 45.45063 8.78325 3395 ft 185 kts 352°
2026-05-05 12:52 45.46316 8.77984 3272 ft 181 kts 351°
2026-05-05 12:52 45.47535 8.77643 3174 ft 176 kts 351°
2026-05-05 12:52 45.48753 8.77306 3068 ft 179 kts 350°
2026-05-05 12:53 45.49979 8.76965 2998 ft 182 kts 351°
2026-05-05 12:53 45.51218 8.76622 2797 ft 178 kts 351°
2026-05-05 12:53 45.52387 8.76296 2565 ft 164 kts 352°
2026-05-05 12:53 45.53465 8.75997 2414 ft 153 kts 352°
2026-05-05 12:54 45.55523 8.75428 1965 ft 148 kts 352°
2026-05-05 12:54 45.56516 8.75152 1764 ft 140 kts 352°
2026-05-05 12:54 45.57475 8.74887 1586 ft 143 kts 351°
2026-05-05 12:55 45.58456 8.74614 1368 ft 141 kts 350°
2026-05-05 12:55 45.59409 8.74350 1159 ft 140 kts 347°
2026-05-05 12:55 45.60357 8.74082 989 ft 139 kts 348°
2026-05-05 12:55 45.61293 8.73805 841 ft 134 kts 349°
2026-05-05 12:56 45.62222 8.73561 729 ft 133 kts 348°
2026-05-05 12:56 45.63033 8.73348 713 ft 107 kts 349°
2026-05-05 12:56 45.63688 8.73163 719 ft 86 kts 348°
2026-05-05 12:56 45.64219 8.73015 714 ft 71 kts 342°
2026-05-05 12:57 45.64377 8.72754 719 ft 13 kts 303°
2026-05-05 12:57 45.64379 8.72750 718 ft 0 kts 302°
2026-05-05 12:58 45.64382 8.72742 717 ft 5 kts 302°
2026-05-05 12:58 45.64411 8.72690 718 ft 7 kts 317°
2026-05-05 12:59 45.64451 8.72657 717 ft 7 kts 328°
2026-05-05 12:59 45.64485 8.72616 717 ft 6 kts 346°
2026-05-05 12:59 45.64529 8.72625 715 ft 6 kts 356°
2026-05-05 13:00 45.64545 8.72608 715 ft 2 kts 296°
2026-05-05 13:00 45.64546 8.72571 715 ft 4 kts 272°
2026-05-05 13:01 45.64550 8.72526 716 ft 0 kts 278°